Fort Stanton, NM

7:03 AM MST on January 16, 2017 (GMT -0700)
Sierra Blanca Regional

Weather History for KSRR - July, 2013

Change the Weather History Date:

Monday, July 15, 2013

  Actual Average Record
Temperature  
Mean Temperature 55 °F -  
Max Temperature 59 °F 80 °F 91 °F (2003)
Min Temperature 51 °F 57 °F 35 °F (2006)
Degree Days  
Heating Degree Days 10    
Growing Degree Days 5 (Base 50)    
Moisture  
Dew Point 54 °F    
Average Humidity 95    
Maximum Humidity 100    
Minimum Humidity 77    
Precipitation  
Precipitation 0.08 in - - ()
Sea Level Pressure  
Sea Level Pressure 30.29 in    
Wind  
Wind Speed 8 mph (SSE)    
Max Wind Speed 16 mph    
Max Gust Speed 21 mph    
Visibility 6 miles    
Events Fog , Rain    
Averages and records for this station are not official NWS values.
T = Trace of Precipitation, MM = Missing Value Source: NWS Daily Summary

Daily Weather History Graph

Daily Weather History Graph

Search for Another Location

Airport or City:

Trip Planner

Search our weather history database for the weather conditions in past years. The results will help you decide how hot, cold, wet, or windy it might be!

Date:

Astronomy

Jul. 15, 2013 Rise Set
Actual Time 6:03 AM MDT 8:12 PM MDT
Civil Twilight 5:35 AM MDT 8:40 PM MDT
Nautical Twilight 5:00 AM MDT 9:15 PM MDT
Astronomical Twilight 4:23 AM MDT 9:52 PM MDT
Moon 1:01 PM MDT (7/15) No Moon Set
Length of Visible Light 15h 05m
Length of Day
14h 09m
Waxing Crescent, 46% of the Moon is Illuminated
Jul 15
Waxing Crescent
Jul 15
First Quarter
Jul 22
Full
Jul 29
Last Quarter
Aug 6
New

Hourly Weather History & Observations

Time (MDT) Temp. Dew Point Humidity Pressure Visibility Wind Dir Wind Speed Gust Speed Precip Events Conditions
12:15 AM 59.0 °F 57.2 °F 94% 30.29 in 10.0 mi South 8.1 mph - N/A   Mostly Cloudy
12:35 AM 59.0 °F 57.2 °F 94% 30.28 in 10.0 mi South 6.9 mph - N/A   Mostly Cloudy
12:55 AM 59.0 °F 57.2 °F 94% 30.28 in 10.0 mi SSE 4.6 mph - N/A   Mostly Cloudy
1:15 AM 59.0 °F 57.2 °F 94% 30.28 in 9.0 mi South 4.6 mph - N/A Rain Light Rain
1:35 AM 59.0 °F 59.0 °F 100% 30.28 in 7.0 mi South 5.8 mph - 0.01 in Rain Light Rain
1:55 AM 59.0 °F 59.0 °F 100% 30.28 in 8.0 mi South 4.6 mph - 0.01 in   Mostly Cloudy
2:15 AM 59.0 °F 59.0 °F 100% 30.27 in 9.0 mi SSW 4.6 mph - N/A   Overcast
2:35 AM 59.0 °F 59.0 °F 100% 30.27 in 10.0 mi Calm Calm - N/A   Overcast
2:55 AM 59.0 °F 59.0 °F 100% 30.25 in 9.0 mi SSE 3.5 mph - N/A   Mostly Cloudy
3:15 AM 59.0 °F 59.0 °F 100% 30.24 in 7.0 mi Calm Calm - N/A Rain Light Rain
3:35 AM 59.0 °F 59.0 °F 100% 30.25 in 8.0 mi SE 3.5 mph - N/A   Overcast
3:55 AM 59.0 °F 59.0 °F 100% 30.24 in 6.0 mi SE 3.5 mph - N/A   Overcast
4:15 AM 59.0 °F 59.0 °F 100% 30.24 in 0.2 mi SE 6.9 mph - N/A Fog Fog
4:35 AM 57.2 °F 57.2 °F 100% 30.24 in 7.0 mi SE 5.8 mph - N/A   Overcast
4:55 AM 57.2 °F 57.2 °F 100% 30.24 in 10.0 mi SSE 8.1 mph - N/A   Overcast
5:15 AM 57.2 °F 57.2 °F 100% 30.24 in 8.0 mi SE 10.4 mph - N/A   Overcast
5:35 AM 57.2 °F 57.2 °F 100% 30.24 in 8.0 mi SE 8.1 mph - N/A   Overcast
5:55 AM 57.2 °F 57.2 °F 100% 30.24 in 8.0 mi ESE 8.1 mph - N/A   Overcast
6:15 AM 57.2 °F 57.2 °F 100% 30.24 in 5.0 mi SE 8.1 mph - N/A   Overcast
6:35 AM 57.2 °F 57.2 °F 100% 30.24 in 1.2 mi ESE 9.2 mph - N/A   Overcast
6:55 AM 57.2 °F 57.2 °F 100% 30.25 in 0.2 mi SE 5.8 mph - N/A Fog Fog
7:15 AM 57.2 °F 57.2 °F 100% 30.25 in 0.2 mi SE 8.1 mph - N/A Fog Fog
7:35 AM 57.2 °F 57.2 °F 100% 30.26 in 0.2 mi SSE 5.8 mph - N/A Fog Fog
7:55 AM 55.4 °F 55.4 °F 100% 30.27 in 0.2 mi ESE 6.9 mph - N/A Rain Light Rain
8:15 AM 55.4 °F 55.4 °F 100% 30.27 in 0.2 mi East 10.4 mph - 0.01 in Rain Light Rain
8:35 AM 55.4 °F 55.4 °F 100% 30.28 in 2.0 mi ESE 8.1 mph - 0.01 in   Overcast
8:55 AM 55.4 °F 55.4 °F 100% 30.29 in 1.2 mi East 10.4 mph - 0.01 in Rain Light Rain
9:15 AM 53.6 °F 53.6 °F 100% 30.29 in 1.5 mi ESE 12.7 mph 17.3 mph N/A   Overcast
9:35 AM 53.6 °F 53.6 °F 100% 30.29 in 2.5 mi ESE 12.7 mph - 0.01 in   Overcast
9:55 AM 53.6 °F 53.6 °F 100% 30.30 in 3.0 mi East 10.4 mph - 0.01 in   Overcast
10:15 AM 53.6 °F 53.6 °F 100% 30.31 in 2.5 mi ESE 12.7 mph - 0.02 in Rain Light Rain
10:35 AM 53.6 °F 53.6 °F 100% 30.32 in 1.5 mi East 11.5 mph 18.4 mph 0.03 in Rain Light Rain
10:55 AM 53.6 °F 53.6 °F 100% 30.32 in 1.2 mi ESE 15.0 mph 19.6 mph 0.03 in Rain Light Rain
11:15 AM 53.6 °F 53.6 °F 100% 30.32 in 1.5 mi ESE 10.4 mph - 0.01 in   Overcast
11:35 AM 55.4 °F 55.4 °F 100% 30.32 in 1.2 mi SE 10.4 mph - 0.01 in   Overcast
11:55 AM 53.6 °F 53.6 °F 100% 30.33 in 2.0 mi ESE 16.1 mph - 0.02 in   Overcast
12:15 PM 53.6 °F 53.6 °F 100% 30.33 in 10.0 mi SE 13.8 mph 20.7 mph N/A   Overcast
12:35 PM 53.6 °F 53.6 °F 100% 30.33 in 0.2 mi SE 15.0 mph - N/A Fog Fog
12:55 PM 53.6 °F 53.6 °F 100% 30.33 in 5.0 mi SE 11.5 mph - N/A   Overcast
1:15 PM 53.6 °F 53.6 °F 100% 30.33 in 0.5 mi SE 9.2 mph - N/A Fog Fog
1:35 PM 53.6 °F 53.6 °F 100% 30.33 in 0.8 mi SSE 11.5 mph - N/A   Overcast
1:55 PM 53.6 °F 53.6 °F 100% 30.32 in 0.5 mi SE 12.7 mph - N/A Fog Fog
2:15 PM 53.6 °F 53.6 °F 100% 30.32 in 8.0 mi SE 8.1 mph - N/A   Overcast
2:35 PM 53.6 °F 53.6 °F 100% 30.31 in 3.0 mi SE 10.4 mph - N/A   Overcast
2:55 PM 53.6 °F 53.6 °F 100% 30.31 in 0.2 mi ESE 10.4 mph - N/A Fog Fog
3:15 PM 53.6 °F 53.6 °F 100% 30.31 in 0.2 mi SE 9.2 mph - N/A Fog Fog
3:35 PM 53.6 °F 53.6 °F 100% 30.30 in 5.0 mi ESE 8.1 mph - N/A   Overcast
3:55 PM 53.6 °F 53.6 °F 100% 30.30 in 7.0 mi SSE 8.1 mph - N/A   Overcast
4:15 PM 53.6 °F 53.6 °F 100% 30.30 in 5.0 mi SSE 11.5 mph - N/A   Overcast
4:35 PM 53.6 °F 53.6 °F 100% 30.30 in 2.5 mi ESE 9.2 mph - N/A   Overcast
4:55 PM 53.6 °F 53.6 °F 100% 30.29 in 3.0 mi ESE 12.7 mph - N/A   Overcast
5:15 PM 53.6 °F 51.8 °F 94% 30.29 in 5.0 mi ESE 9.2 mph - N/A   Overcast
5:35 PM 53.6 °F 50.0 °F 88% 30.29 in 7.0 mi ESE 12.7 mph 17.3 mph N/A   Overcast
5:55 PM 53.6 °F 50.0 °F 88% 30.29 in 9.0 mi SE 6.9 mph - N/A   Overcast
6:15 PM 55.4 °F 48.2 °F 77% 30.29 in 10.0 mi SSE 6.9 mph - N/A   Mostly Cloudy
6:35 PM 55.4 °F 50.0 °F 82% 30.29 in 9.0 mi South 6.9 mph - N/A   Partly Cloudy
6:55 PM 55.4 °F 48.2 °F 77% 30.29 in 10.0 mi South 6.9 mph - N/A   Clear
7:15 PM 55.4 °F 48.2 °F 77% 30.29 in 10.0 mi South 5.8 mph - N/A   Clear
7:35 PM 55.4 °F 50.0 °F 82% 30.29 in 10.0 mi South 5.8 mph - N/A   Clear
7:55 PM 53.6 °F 50.0 °F 88% 30.30 in 10.0 mi South 6.9 mph - N/A   Clear
8:15 PM 53.6 °F 50.0 °F 88% 30.30 in 10.0 mi SSW 5.8 mph - N/A   Clear
8:35 PM 53.6 °F 50.0 °F 88% 30.31 in 10.0 mi SSW 6.9 mph - N/A   Clear
8:55 PM 51.8 °F 48.2 °F 88% 30.31 in 10.0 mi SW 4.6 mph - N/A   Partly Cloudy
9:15 PM 51.8 °F 48.2 °F 88% 30.31 in 10.0 mi SW 6.9 mph - N/A   Mostly Cloudy
9:35 PM 51.8 °F 48.2 °F 88% 30.32 in 10.0 mi SW 6.9 mph - N/A   Mostly Cloudy
9:55 PM 53.6 °F 48.2 °F 82% 30.33 in 10.0 mi SW 5.8 mph - N/A   Mostly Cloudy
10:15 PM 51.8 °F 48.2 °F 88% 30.33 in 10.0 mi SW 5.8 mph - N/A   Mostly Cloudy
10:35 PM 51.8 °F 48.2 °F 88% 30.33 in 10.0 mi SW 9.2 mph - N/A   Mostly Cloudy
10:55 PM 53.6 °F 48.2 °F 82% 30.33 in 10.0 mi SW 6.9 mph - N/A   Overcast
11:15 PM 53.6 °F 48.2 °F 82% 30.34 in 10.0 mi SW 5.8 mph - N/A   Overcast
11:35 PM 53.6 °F 48.2 °F 82% 30.33 in 10.0 mi SSW 5.8 mph - N/A   Overcast
11:55 PM 53.6 °F 48.2 °F 82% 30.33 in 10.0 mi SW 5.8 mph - N/A   Overcast